GPS BIIF-2 (37753 NORAD) Tracking and Keplerian Element Data

This shows tracking and keplerian element data for the satellite.

Feedback or suggestion? Click here.




ElementValue
Catalog37753
NameGPS BIIF-2
Epoch Orbit5429
Epoch Day348.77839875
Epoch Year2018
RAAN79.054
Inclination55.7865
Eccentricity0.008055
Argument of Perigee38.5612
Mean Anonmoly53.6824
Mean Motion2.00565177
Decay Rate-4.4E-07
L11 37753U 11036A 18348.77839875 -.00000044 00000-0 00000-0 0 9993
L22 37753 55.7865 79.0540 0080550 38.5612 53.6824 2.00565177 54292

Live tracking and technical data element details for GPS BIIF-2 (NORAD 37753). GPS BIIF-2 can be tracked NOW for your location showing map with azimuth and elevation plus other details from your city location.

Track the satellite on the map from your city or location and see movement details for azimuth, elevation, latitude, longitude, range, height, and movement on the map or in text.







IsCatalogInMostPopularTable: catalog: 37753, numindb: 56
Update: records affected: 1



GetName: 37753 GPS BIIF-2

Hit Count: updated at: Sat, 15 Dec 2018 14:00:42 GMT